Flag for Honduras Weather past 2 weeks in Choloma, Honduras

Now
75 °F

Passing clouds.


Feels Like: 73 °F
Forecast: 72 / 86 °F
Wind: No wind

Location: La Mesa San Pedro Sula


UV Index: 10 (Very high)

Visibility: N/A


Pressure: 29.86 "Hg

Humidity: 100%

Dew point: 75 °F

Location of CholomaLocation

Historic Weather in Choloma

°F

Choloma temperature yesterday

Maximum temperature yesterday: 91 °F (at 1:00 PM)
Minimum temperature yesterday: 73 °F (at 3:00 AM)
Average temperature yesterday: 82 °F

Past Weeks' High & Low Weather Summary

 TemperatureHumidityPressure
High106 °F (Apr 7, 3:00 PM)100% (Apr 3, 5:00 AM)30.24 "Hg (Apr 3, 5:00 AM)
Low63 °F (Apr 10, 6:00 AM)19% (Apr 7, 3:00 PM)29.53 "Hg (Apr 5, 3:00 PM)
Average82 °F69%29.89 "Hg
* Reported Apr 3 4:00 AM — Apr 18 3:00 AM, Choloma, Weather by CustomWeather, © 2014

Note: Actual official high and low records may vary slightly from our data, if they occured in-between our weather recording intervals... More about our weather records

Advertising

Historic Weather Conditions — Data for Previous 24 hours

 ConditionsComfort  
Time TempWeatherWind HumidityBarometerVisibility
3:00 AM
Apr 18
75 °FPassing clouds.No wind100%29.86 "HgN/A
2:00 AM77 °FPassing clouds.No wind94%29.86 "HgN/A
1:00 AM77 °FPassing clouds.2 mph94%29.89 "HgN/A
12:00 AM79 °FPassing clouds.2 mph89%29.89 "HgN/A
11:00 PM
Apr 17
79 °FPassing clouds.No wind89%29.92 "HgN/A
10:00 PM79 °FPassing clouds.5 mph89%29.92 "HgN/A
9:00 PM79 °FPassing clouds.3 mph89%29.89 "HgN/A
7:00 PM81 °FPassing clouds.6 mph79%29.89 "HgN/A
6:00 PM82 °FPartly sunny.14 mph74%29.86 "HgN/A
5:00 PM84 °FPartly sunny.15 mph70%29.83 "HgN/A
4:00 PM86 °FPartly sunny.17 mph66%29.83 "HgN/A
3:00 PM90 °FBroken clouds.14 mph55%29.83 "HgN/A
2:00 PM90 °FBroken clouds.10 mph55%29.83 "HgN/A
1:00 PM91 °FBroken clouds.9 mph52%29.86 "HgN/A
12:00 PM90 °FBroken clouds.7 mph55%29.92 "HgN/A
11:00 AM88 °FBroken clouds.5 mph59%29.92 "HgN/A
10:00 AM86 °FBroken clouds.No wind62%29.95 "HgN/A
9:00 AM84 °FScattered clouds.No wind66%29.95 "HgN/A
8:00 AM79 °FScattered clouds.2 mph84%29.95 "HgN/A
7:00 AM75 °FBroken clouds.No wind94%29.92 "HgN/A
6:00 AM75 °FBroken clouds.No wind94%29.92 "HgN/A
4:00 AM73 °FPassing clouds.No wind100%29.89 "HgN/A
3:00 AM73 °FPassing clouds.No wind100%29.89 "HgN/A
Weather by CustomWeather, © 2014

See weather overview